Weather History for Arctic Village, AK

Change the Weather History Date:

Wednesday, April 2, 2014

  Actual Average Record
Temperature  
Mean Temperature 1 °F -  
Max Temperature 15 °F 18 °F 36 °F (1990)
Min Temperature -13 °F -16 °F -43 °F (1971)
Degree Days  
Heating Degree Days 64    
Moisture  
Dew Point -11 °F    
Average Humidity 51    
Maximum Humidity 100    
Minimum Humidity 21    
Precipitation  
Precipitation 0.00 in - - ()
Sea Level Pressure  
Sea Level Pressure 29.86 in    
Wind  
Wind Speed 3 mph (East)    
Max Wind Speed 7 mph    
Max Gust Speed -    
Visibility 10 miles    
Events      
Averages and records for this station are not official NWS values.
T = Trace of Precipitation, MM = Missing Value Source: NWS Daily Summary

Daily Weather History Graph

Daily Weather History Graph

Search for Another Location

Airport:

Trip Planner

Search our weather history database for the weather conditions in past years. The results will help you decide how hot, cold, wet, or windy it might be!

Date:

Astronomy

Apr. 02, 2014 Rise Set
Actual Time 6:45 AM AKDT 8:48 PM AKDT
Civil Twilight 5:45 AM AKDT 9:48 PM AKDT
Nautical Twilight 4:21 AM AKDT 11:15 PM AKDT
Astronomical Twilight 2:18 AM AKDT 1:13 AM AKDT
Moon 7:09 AM AKDT (4/2) 12:38 AM AKDT (4/2)
Length of Visible Light 16h 03m
Length of Day
14h 02m
Waxing Crescent, 11% of the Moon is Illuminated
Apr 2
Waxing Crescent
Apr 7
First Quarter
Apr 14
Full
Apr 21
Last Quarter
Apr 28
New

Hourly Weather History & Observations

Time (AKDT) Temp. Windchill Dew Point Humidity Pressure Visibility Wind Dir Wind Speed Gust Speed Precip Events Conditions
12:16 AM -2.2 °F -15.6 °F -13.0 °F 60% 29.94 in 10.0 mi ENE 6.9 mph - N/A   Clear
12:36 AM -2.2 °F -15.6 °F -11.2 °F 66% 29.94 in 10.0 mi ENE 6.9 mph - N/A   Clear
12:56 AM -4.0 °F -17.8 °F -11.2 °F 71% 29.94 in 10.0 mi ENE 6.9 mph - N/A   Clear
1:16 AM -5.8 °F -18.4 °F -25.6 °F 38% 29.94 in 10.0 mi NE 5.8 mph - N/A   Clear
1:36 AM -5.8 °F -19.9 °F -27.4 °F 35% 29.93 in 10.0 mi ENE 6.9 mph - N/A   Clear
1:56 AM -4.0 °F -16.3 °F -9.4 °F 78% 29.93 in 10.0 mi East 5.8 mph - N/A   Clear
2:16 AM -5.8 °F -16.7 °F -18.4 °F 55% 29.93 in 10.0 mi East 4.6 mph - N/A   Clear
2:36 AM -5.8 °F -16.7 °F - N/A% 29.93 in 10.0 mi East 4.6 mph - N/A   Clear
2:56 AM -7.6 °F - - N/A% 29.93 in 10.0 mi Calm Calm - N/A   Clear
3:16 AM -7.6 °F -20.6 °F -11.2 °F 84% 29.93 in 10.0 mi NE 5.8 mph - N/A   Clear
4:56 AM -11.2 °F - - N/A% 29.92 in 10.0 mi Calm Calm - N/A   Clear
5:16 AM -9.4 °F - - N/A% 29.92 in 10.0 mi Calm Calm - N/A   Clear
5:36 AM -11.2 °F -23.0 °F -22.0 °F 59% 29.91 in 10.0 mi NE 4.6 mph - N/A   Clear
5:56 AM -11.2 °F -20.6 °F -29.2 °F 41% 29.91 in 10.0 mi NE 3.5 mph - N/A   Clear
6:16 AM -9.4 °F -20.9 °F -18.4 °F 65% 29.91 in 10.0 mi NNE 4.6 mph - N/A   Clear
6:36 AM -9.4 °F -18.6 °F - N/A% 29.91 in 10.0 mi NNE 3.5 mph - N/A   Clear
6:56 AM -11.2 °F - - N/A% 29.91 in 10.0 mi Calm Calm - N/A   Clear
7:16 AM -11.2 °F - - N/A% 29.91 in 10.0 mi Calm Calm - N/A   Clear
7:36 AM -13.0 °F - - N/A% 29.91 in 10.0 mi Calm Calm - N/A   Clear
7:56 AM -11.2 °F - -25.6 °F 49% 29.90 in 10.0 mi Calm Calm - N/A   Clear
8:16 AM -9.4 °F - -13.0 °F 84% 29.90 in 10.0 mi Calm Calm - N/A   Clear
8:36 AM - - - N/A% 29.90 in 10.0 mi Calm Calm - N/A   Clear
8:56 AM -7.6 °F - - N/A% 29.90 in 10.0 mi Calm Calm - N/A   Clear
9:16 AM -7.6 °F - -25.6 °F 41% 29.90 in 10.0 mi Calm Calm - N/A   Clear
9:56 AM -2.2 °F - -20.2 °F 42% 29.89 in 10.0 mi Calm Calm - N/A   Clear
10:16 AM -2.2 °F - -27.4 °F 29% 29.89 in 10.0 mi Calm Calm - N/A   Clear
10:36 AM -2.2 °F - -27.4 °F 29% 29.89 in 10.0 mi Calm Calm - N/A   Clear
10:56 AM -0.4 °F - -16.6 °F 46% 29.89 in 10.0 mi Calm Calm - N/A   Clear
11:16 AM 3.2 °F - -7.6 °F 61% 29.88 in 10.0 mi Calm Calm - N/A   Clear
11:36 AM 3.2 °F - -11.2 °F 51% 29.88 in 10.0 mi Calm Calm - N/A   Clear
11:56 AM 3.2 °F - -5.8 °F 66% 29.88 in 10.0 mi Calm Calm - N/A   Clear
12:16 PM 6.8 °F - -7.6 °F 52% 29.88 in 10.0 mi Calm Calm - N/A   Clear
12:36 PM 6.8 °F - -9.4 °F 48% 29.87 in 10.0 mi Calm Calm - N/A   Clear
12:56 PM 8.6 °F - -0.4 °F 67% 29.87 in 10.0 mi Calm Calm - N/A   Clear
1:16 PM 8.6 °F - -7.6 °F 48% 29.87 in 10.0 mi Calm Calm - N/A   Clear
1:36 PM 10.4 °F - -11.2 °F 37% 29.87 in 10.0 mi Calm Calm - N/A   Clear
1:56 PM 12.2 °F 6.1 °F - N/A% 29.86 in 10.0 mi NE 3.5 mph - N/A   Clear
2:16 PM 12.2 °F 6.1 °F -20.2 °F 22% 29.86 in 10.0 mi NE 3.5 mph - N/A   Clear
2:36 PM 12.2 °F - -0.4 °F 57% 29.85 in 10.0 mi Calm Calm - N/A   Clear
2:56 PM 14.0 °F 8.2 °F -2.2 °F 49% 29.85 in 10.0 mi SE 3.5 mph - N/A   Clear
3:16 PM 14.0 °F 6.5 °F -0.4 °F 53% 29.84 in 10.0 mi ESE 4.6 mph - N/A   Clear
3:36 PM 14.0 °F 5.1 °F -2.2 °F 49% 29.84 in 10.0 mi ESE 5.8 mph - N/A   Clear
3:56 PM 15.8 °F - -4.0 °F 41% 29.84 in 10.0 mi Calm Calm - N/A   Clear
4:16 PM 15.8 °F - -4.0 °F 41% 29.84 in 10.0 mi Calm Calm - N/A   Clear
4:36 PM 15.8 °F - -4.0 °F 41% 29.83 in 10.0 mi Calm Calm - N/A   Clear
4:56 PM 15.8 °F - -4.0 °F 41% 29.83 in 10.0 mi Calm Calm - N/A   Clear
5:36 PM 15.8 °F - -2.2 °F 45% 29.82 in 10.0 mi Calm Calm - N/A   Clear
5:56 PM 15.8 °F 8.6 °F -4.0 °F 41% 29.82 in 10.0 mi SSE 4.6 mph - N/A   Clear
6:16 PM 14.0 °F 5.1 °F -4.0 °F 45% 29.82 in 10.0 mi SSE 5.8 mph - N/A   Clear
6:36 PM 14.0 °F 8.2 °F -4.0 °F 45% 29.81 in 10.0 mi South 3.5 mph - N/A   Clear
6:56 PM 12.2 °F 6.1 °F -5.8 °F 45% 29.81 in 10.0 mi SSE 3.5 mph - N/A   Clear
7:16 PM 12.2 °F 6.1 °F -5.8 °F 45% 29.80 in 10.0 mi South 3.5 mph - N/A   Clear
7:36 PM 12.2 °F - -5.8 °F 45% 29.81 in 10.0 mi Calm Calm - N/A   Clear
7:56 PM 10.4 °F - -5.8 °F 48% 29.80 in 10.0 mi Calm Calm - N/A   Clear
8:16 PM 10.4 °F - -5.8 °F 48% 29.80 in 10.0 mi Calm Calm - N/A   Clear
8:36 PM 8.6 °F - -7.6 °F 48% 29.81 in 10.0 mi Calm Calm - N/A   Clear
8:56 PM 6.8 °F - -9.4 °F 48% 29.80 in 10.0 mi Calm Calm - N/A   Clear
9:16 PM 6.8 °F - -9.4 °F 48% 29.80 in 10.0 mi Calm Calm - N/A   Clear
9:36 PM 3.2 °F - -11.2 °F 51% 29.79 in 10.0 mi Calm Calm - N/A   Clear
9:56 PM 5.0 °F -2.1 °F - N/A% 29.79 in 10.0 mi NW 3.5 mph - N/A   Clear
10:16 PM 1.4 °F -6.2 °F -31.0 °F 21% 29.79 in 10.0 mi NE 3.5 mph - N/A   Clear
10:36 PM 3.2 °F - -14.8 °F 43% 29.78 in 10.0 mi Calm Calm - N/A   Clear
10:56 PM 1.4 °F - -11.2 °F 56% 29.78 in 10.0 mi Calm Calm - N/A   Clear
11:16 PM -0.4 °F - -9.4 °F 66% 29.78 in 10.0 mi Calm Calm - N/A   Clear
11:36 PM -0.4 °F - -14.8 °F 51% 29.78 in 10.0 mi Calm Calm - N/A   Clear
11:56 PM -0.4 °F - -0.4 °F 100% 29.78 in 9.0 mi Calm Calm - N/A   Scattered Clouds